owner,sensor,date,latitude,longitude,vertical_datum,direction_of_sea_water_velocity,sea_water_speed,upward_sea_water_velocity,qcFlag 
TABS,ioos:station:wmo:42046:1,2002-01-23T00:30:00Z,27.8903,-94.0367,2.0,47.96183844,43.38238006,-99999.0,'11111222,11111222,99999999' 
TABS,ioos:station:wmo:42046:1,2002-01-23T01:00:00Z,27.8903,-94.0367,2.0,66.7609664,37.15447752,-99999.0,'11111222,11111222,99999999' 
TABS,ioos:station:wmo:42046:1,2002-01-23T01:30:00Z,27.8903,-94.0367,2.0,62.02688713,37.67123306,-99999.0,'11111222,11111222,99999999' 
TABS,ioos:station:wmo:42046:1,2002-01-23T02:00:00Z,27.8903,-94.0367,2.0,61.9152642,35.57941259,-99999.0,'11111222,11111222,99999999' 
TABS,ioos:station:wmo:42046:1,2002-01-23T02:30:00Z,27.8903,-94.0367,2.0,66.28139032,36.74367973,-99999.0,'11111222,11111222,99999999' 
TABS,ioos:station:wmo:42046:1,2002-01-23T03:30:00Z,27.8903,-94.0367,2.0,75.4423498,38.9091763,-99999.0,'11111222,11111222,99999999' 
TABS,ioos:station:wmo:42046:1,2002-01-23T04:00:00Z,27.8903,-94.0367,2.0,78.05471672,38.02337307,-99999.0,'11111222,11111222,99999999' 
TABS,ioos:station:wmo:42046:1,2002-01-23T04:30:00Z,27.8903,-94.0367,2.0,78.17579483,38.01668318,-99999.0,'11111222,11111222,99999999' 
TABS,ioos:station:wmo:42046:1,2002-01-23T05:00:00Z,27.8903,-94.0367,2.0,73.80905925,40.05882924,-99999.0,'11111222,11111222,99999999' 
TABS,ioos:station:wmo:42046:1,2002-01-23T05:30:00Z,27.8903,-94.0367,2.0,73.85322795,41.02848035,-99999.0,'11111222,11111222,99999999' 
TABS,ioos:station:wmo:42046:1,2002-01-23T06:00:00Z,27.8903,-94.0367,2.0,72.49494896,40.72601257,-99999.0,'11111222,11111222,99999999' 
TABS,ioos:station:wmo:42046:1,2002-01-23T06:30:00Z,27.8903,-94.0367,2.0,74.47665622,41.96066968,-99999.0,'11111222,11111222,99999999' 
TABS,ioos:station:wmo:42046:1,2002-01-23T07:00:00Z,27.8903,-94.0367,2.0,73.2496536,43.99681011,-99999.0,'11111222,11111222,99999999' 
TABS,ioos:station:wmo:42046:1,2002-01-23T07:30:00Z,27.8903,-94.0367,2.0,73.41325702,41.9662817,-99999.0,'11111222,11111222,99999999' 
TABS,ioos:station:wmo:42046:1,2002-01-23T08:00:00Z,27.8903,-94.0367,2.0,74.70218904,39.98684034,-99999.0,'11111222,11111222,99999999' 
TABS,ioos:station:wmo:42046:1,2002-01-23T08:30:00Z,27.8903,-94.0367,2.0,74.47362566,40.01008123,-99999.0,'11111222,11111222,99999999' 
TABS,ioos:station:wmo:42046:1,2002-01-23T09:00:00Z,27.8903,-94.0367,2.0,74.02336007,40.25489287,-99999.0,'11111222,11111222,99999999' 
TABS,ioos:station:wmo:42046:1,2002-01-23T09:30:00Z,27.8903,-94.0367,2.0,74.78117766,40.18943767,-99999.0,'11111222,11111222,99999999' 
TABS,ioos:station:wmo:42046:1,2002-01-23T10:00:00Z,27.8903,-94.0367,2.0,70.52866728,40.55968442,-99999.0,'11111222,11111222,99999999' 
TABS,ioos:station:wmo:42046:1,2002-01-23T10:30:00Z,27.8903,-94.0367,2.0,70.69202801,42.12959174,-99999.0,'11111222,11111222,99999999' 
TABS,ioos:station:wmo:42046:1,2002-01-23T11:00:00Z,27.8903,-94.0367,2.0,66.17338724,42.40402104,-99999.0,'11111222,11111222,99999999' 
TABS,ioos:station:wmo:42046:1,2002-01-23T11:30:00Z,27.8903,-94.0367,2.0,67.22166013,44.76094056,-99999.0,'11111222,11111222,99999999' 
TABS,ioos:station:wmo:42046:1,2002-01-23T12:00:00Z,27.8903,-94.0367,2.0,67.01728724,45.66476213,-99999.0,'11111222,11111222,99999999' 
TABS,ioos:station:wmo:42046:1,2002-01-23T12:30:00Z,27.8903,-94.0367,2.0,66.53389011,45.83038403,-99999.0,'11111222,11111222,99999999' 
TABS,ioos:station:wmo:42046:1,2002-01-23T13:00:00Z,27.8903,-94.0367,2.0,61.32229565,47.55324174,-99999.0,'11111222,11111222,99999999' 
TABS,ioos:station:wmo:42046:1,2002-01-23T13:30:00Z,27.8903,-94.0367,2.0,63.28324732,54.028064,-99999.0,'11111222,11111222,99999999' 
TABS,ioos:station:wmo:42046:1,2002-01-23T14:00:00Z,27.8903,-94.0367,2.0,60.99278894,51.74041554,-99999.0,'11111222,11111222,99999999' 
TABS,ioos:station:wmo:42046:1,2002-01-23T14:30:00Z,27.8903,-94.0367,2.0,59.54108022,57.62233074,-99999.0,'11111222,11111222,99999999' 
TABS,ioos:station:wmo:42046:1,2002-01-23T15:00:00Z,27.8903,-94.0367,2.0,60.9370915,59.82246819,-99999.0,'11111222,11111222,99999999' 
TABS,ioos:station:wmo:42046:1,2002-01-23T15:30:00Z,27.8903,-94.0367,2.0,59.19660604,65.59332054,-99999.0,'11111222,11111222,99999999' 
TABS,ioos:station:wmo:42046:1,2002-01-23T16:00:00Z,27.8903,-94.0367,2.0,58.6261821,67.32349441,-99999.0,'11111222,11111222,99999999' 
TABS,ioos:station:wmo:42046:1,2002-01-23T16:30:00Z,27.8903,-94.0367,2.0,60.55621715,66.3384127,-99999.0,'11111222,11111222,99999999' 
TABS,ioos:station:wmo:42046:1,2002-01-23T17:00:00Z,27.8903,-94.0367,2.0,60.87700416,65.03152005,-99999.0,'11111222,11111222,99999999' 
TABS,ioos:station:wmo:42046:1,2002-01-23T17:30:00Z,27.8903,-94.0367,2.0,62.73309652,64.98053939,-99999.0,'11111222,11111222,99999999' 
TABS,ioos:station:wmo:42046:1,2002-01-23T18:00:00Z,27.8903,-94.0367,2.0,59.75519139,67.79872713,-99999.0,'11111222,11111222,99999999' 
TABS,ioos:station:wmo:42046:1,2002-01-23T18:30:00Z,27.8903,-94.0367,2.0,60.67680649,68.77168022,-99999.0,'11111222,11111222,99999999' 
TABS,ioos:station:wmo:42046:1,2002-01-23T19:00:00Z,27.8903,-94.0367,2.0,60.53542434,73.28928025,-99999.0,'11111222,11111222,99999999' 
TABS,ioos:station:wmo:42046:1,2002-01-23T19:30:00Z,27.8903,-94.0367,2.0,59.45993339,73.995087,-99999.0,'11111222,11111222,99999999' 
TABS,ioos:station:wmo:42046:1,2002-01-23T20:00:00Z,27.8903,-94.0367,2.0,58.58815414,76.95891436,-99999.0,'11111222,11111222,99999999' 
TABS,ioos:station:wmo:42046:1,2002-01-23T20:30:00Z,27.8903,-94.0367,2.0,59.33744919,76.35565467,-99999.0,'11111222,11111222,99999999' 
TABS,ioos:station:wmo:42046:1,2002-01-23T21:30:00Z,27.8903,-94.0367,2.0,59.47426743,71.34892571,-99999.0,'11111222,11111222,99999999' 
TABS,ioos:station:wmo:42046:1,2002-01-23T22:00:00Z,27.8903,-94.0367,2.0,59.43604645,73.74618634,-99999.0,'11111222,11111222,99999999' 
TABS,ioos:station:wmo:42046:1,2002-01-23T22:30:00Z,27.8903,-94.0367,2.0,61.10406084,71.58209972,-99999.0,'11111222,11111222,99999999' 
TABS,ioos:station:wmo:42046:1,2002-01-23T23:00:00Z,27.8903,-94.0367,2.0,61.99194677,71.21004494,-99999.0,'11111222,11111222,99999999' 
TABS,ioos:station:wmo:42046:1,2002-01-23T23:30:00Z,27.8903,-94.0367,2.0,60.80924275,70.67581552,-99999.0,'11111222,11111222,99999999' 
TABS,ioos:station:wmo:42046:1,2002-01-24T00:00:00Z,27.8903,-94.0367,2.0,61.08420224,64.98115727,-99999.0,'11111222,11111222,99999999' 
TABS,ioos:station:wmo:42046:1,2002-01-24T00:30:00Z,27.8903,-94.0367,2.0,60.22556904,64.78211018,-99999.0,'11111222,11111222,99999999' 
TABS,ioos:station:wmo:42046:1,2002-01-24T01:00:00Z,27.8903,-94.0367,2.0,59.02862167,63.85406878,-99999.0,'11111222,11111222,99999999' 
TABS,ioos:station:wmo:42046:1,2002-01-24T01:30:00Z,27.8903,-94.0367,2.0,58.62391385,60.51998843,-99999.0,'11111222,11111222,99999999' 
TABS,ioos:station:wmo:42046:1,2002-01-24T02:00:00Z,27.8903,-94.0367,2.0,57.79343698,57.6388003,-99999.0,'11111222,11111222,99999999' 
TABS,ioos:station:wmo:42046:1,2002-01-24T02:30:00Z,27.8903,-94.0367,2.0,60.26566302,54.27636042,-99999.0,'11111222,11111222,99999999' 
TABS,ioos:station:wmo:42046:1,2002-01-24T03:00:00Z,27.8903,-94.0367,2.0,59.79396931,51.61872722,-99999.0,'11111222,11111222,99999999' 
TABS,ioos:station:wmo:42046:1,2002-01-24T03:30:00Z,27.8903,-94.0367,2.0,61.37603479,50.53645912,-99999.0,'11111222,11111222,99999999' 
TABS,ioos:station:wmo:42046:1,2002-01-24T04:00:00Z,27.8903,-94.0367,2.0,60.29986827,49.30754303,-99999.0,'11111222,11111222,99999999' 
TABS,ioos:station:wmo:42046:1,2002-01-24T04:30:00Z,27.8903,-94.0367,2.0,60.69754263,48.03636331,-99999.0,'11111222,11111222,99999999' 
TABS,ioos:station:wmo:42046:1,2002-01-24T05:00:00Z,27.8903,-94.0367,2.0,62.41312937,47.89524924,-99999.0,'11111222,11111222,99999999' 
TABS,ioos:station:wmo:42046:1,2002-01-24T05:30:00Z,27.8903,-94.0367,2.0,60.35356386,43.34400189,-99999.0,'11111222,11111222,99999999' 
TABS,ioos:station:wmo:42046:1,2002-01-24T06:00:00Z,27.8903,-94.0367,2.0,61.76908494,43.38016597,-99999.0,'11111222,11111222,99999999' 
TABS,ioos:station:wmo:42046:1,2002-01-24T06:30:00Z,27.8903,-94.0367,2.0,61.53385749,40.57566389,-99999.0,'11111222,11111222,99999999' 
TABS,ioos:station:wmo:42046:1,2002-01-24T07:00:00Z,27.8903,-94.0367,2.0,58.84049785,42.15116843,-99999.0,'11111222,11111222,99999999' 
TABS,ioos:station:wmo:42046:1,2002-01-24T07:30:00Z,27.8903,-94.0367,2.0,57.07504751,37.18209515,-99999.0,'11111222,11111222,99999999' 
TABS,ioos:station:wmo:42046:1,2002-01-24T08:00:00Z,27.8903,-94.0367,2.0,55.73650043,38.79212807,-99999.0,'11111222,11111222,99999999' 
TABS,ioos:station:wmo:42046:1,2002-01-24T08:30:00Z,27.8903,-94.0367,2.0,50.71986586,39.5189638,-99999.0,'11111222,11111222,99999999' 
TABS,ioos:station:wmo:42046:1,2002-01-24T09:00:00Z,27.8903,-94.0367,2.0,54.8182977,35.3713514,-99999.0,'11111222,11111222,99999999' 
TABS,ioos:station:wmo:42046:1,2002-01-24T09:30:00Z,27.8903,-94.0367,2.0,55.1395636,34.62328985,-99999.0,'11111222,11111222,99999999' 
TABS,ioos:station:wmo:42046:1,2002-01-24T10:00:00Z,27.8903,-94.0367,2.0,51.19181443,34.35365774,-99999.0,'11111222,11111222,99999999' 
TABS,ioos:station:wmo:42046:1,2002-01-24T10:30:00Z,27.8903,-94.0367,2.0,52.83418015,36.00248047,-99999.0,'11111222,11111222,99999999' 
TABS,ioos:station:wmo:42046:1,2002-01-24T11:00:00Z,27.8903,-94.0367,2.0,49.50405011,36.01810933,-99999.0,'11111222,11111222,99999999' 
TABS,ioos:station:wmo:42046:1,2002-01-24T11:30:00Z,27.8903,-94.0367,2.0,51.39725021,37.69724128,-99999.0,'11111222,11111222,99999999' 
TABS,ioos:station:wmo:42046:1,2002-01-24T12:30:00Z,27.8903,-94.0367,2.0,49.05127739,40.23591679,-99999.0,'11111222,11111222,99999999' 
TABS,ioos:station:wmo:42046:1,2002-01-24T13:00:00Z,27.8903,-94.0367,2.0,48.59767721,42.82191962,-99999.0,'11111222,11111222,99999999' 
TABS,ioos:station:wmo:42046:1,2002-01-24T13:30:00Z,27.8903,-94.0367,2.0,48.31633174,41.68303372,-99999.0,'11111222,11111222,99999999' 
TABS,ioos:station:wmo:42046:1,2002-01-24T14:00:00Z,27.8903,-94.0367,2.0,52.00793607,45.03263816,-99999.0,'11111222,11111222,99999999' 
TABS,ioos:station:wmo:42046:1,2002-01-24T14:30:00Z,27.8903,-94.0367,2.0,51.29595209,46.42578809,-99999.0,'11111222,11111222,99999999' 
TABS,ioos:station:wmo:42046:1,2002-01-24T15:00:00Z,27.8903,-94.0367,2.0,46.60272416,47.02685403,-99999.0,'11111222,11111222,99999999' 
TABS,ioos:station:wmo:42046:1,2002-01-24T15:30:00Z,27.8903,-94.0367,2.0,54.14395136,47.47743148,-99999.0,'11111222,11111222,99999999' 
TABS,ioos:station:wmo:42046:1,2002-01-24T16:00:00Z,27.8903,-94.0367,2.0,54.509817,47.76384616,-99999.0,'11111222,11111222,99999999' 
TABS,ioos:station:wmo:42046:1,2002-01-24T16:30:00Z,27.8903,-94.0367,2.0,57.94831718,49.76585677,-99999.0,'11111222,11111222,99999999' 
TABS,ioos:station:wmo:42046:1,2002-01-24T17:00:00Z,27.8903,-94.0367,2.0,59.67646405,52.19027687,-99999.0,'11111222,11111222,99999999' 
TABS,ioos:station:wmo:42046:1,2002-01-24T17:30:00Z,27.8903,-94.0367,2.0,56.7956582,52.68177009,-99999.0,'11111222,11111222,99999999' 
TABS,ioos:station:wmo:42046:1,2002-01-24T18:00:00Z,27.8903,-94.0367,2.0,57.62566381,50.8544531,-99999.0,'11111222,11111222,99999999' 
TABS,ioos:station:wmo:42046:1,2002-01-24T18:30:00Z,27.8903,-94.0367,2.0,59.10083797,51.77888566,-99999.0,'11111222,11111222,99999999' 
TABS,ioos:station:wmo:42046:1,2002-01-24T19:00:00Z,27.8903,-94.0367,2.0,63.44007374,50.6111628,-99999.0,'11111222,11111222,99999999' 
TABS,ioos:station:wmo:42046:1,2002-01-24T19:30:00Z,27.8903,-94.0367,2.0,64.19053569,52.23014455,-99999.0,'11111222,11111222,99999999' 
TABS,ioos:station:wmo:42046:1,2002-01-24T20:00:00Z,27.8903,-94.0367,2.0,65.30460638,50.71866027,-99999.0,'11111222,11111222,99999999' 
TABS,ioos:station:wmo:42046:1,2002-01-24T20:30:00Z,27.8903,-94.0367,2.0,68.27882834,50.4200476,-99999.0,'11111222,11111222,99999999' 
TABS,ioos:station:wmo:42046:1,2002-01-24T21:00:00Z,27.8903,-94.0367,2.0,68.47171407,51.04080035,-99999.0,'11111222,11111222,99999999' 
TABS,ioos:station:wmo:42046:1,2002-01-24T21:30:00Z,27.8903,-94.0367,2.0,71.60934941,49.12916038,-99999.0,'11111222,11111222,99999999' 
TABS,ioos:station:wmo:42046:1,2002-01-24T22:00:00Z,27.8903,-94.0367,2.0,72.39835283,44.57701762,-99999.0,'11111222,11111222,99999999' 
TABS,ioos:station:wmo:42046:1,2002-01-24T22:30:00Z,27.8903,-94.0367,2.0,76.13473231,42.27172223,-99999.0,'11111222,11111222,99999999' 
TABS,ioos:station:wmo:42046:1,2002-01-24T23:00:00Z,27.8903,-94.0367,2.0,76.01720023,39.02642438,-99999.0,'11111222,11111222,99999999' 
TABS,ioos:station:wmo:42046:1,2002-01-24T23:30:00Z,27.8903,-94.0367,2.0,79.42252682,35.90003064,-99999.0,'11111222,11111222,99999999' 
TABS,ioos:station:wmo:42046:1,2002-01-25T00:00:00Z,27.8903,-94.0367,2.0,79.93530069,31.58607921,-99999.0,'11111222,11111222,99999999' 
TABS,ioos:station:wmo:42046:1,2002-01-25T00:30:00Z,27.8903,-94.0367,2.0,81.88280802,25.14188935,-99999.0,'11111222,11111222,99999999' 
TABS,ioos:station:wmo:42046:1,2002-01-25T01:00:00Z,27.8903,-94.0367,2.0,99.47804713,23.92662952,-99999.0,'11111222,11111222,99999999' 
TABS,ioos:station:wmo:42046:1,2002-01-25T01:30:00Z,27.8903,-94.0367,2.0,114.3870721,18.35796285,-99999.0,'11111222,11111222,99999999' 
TABS,ioos:station:wmo:42046:1,2002-01-25T02:00:00Z,27.8903,-94.0367,2.0,127.6838951,22.10023077,-99999.0,'11111222,11111222,99999999' 
TABS,ioos:station:wmo:42046:1,2002-01-25T02:30:00Z,27.8903,-94.0367,2.0,152.153401,16.99836757,-99999.0,'11111222,11111222,99999999' 
TABS,ioos:station:wmo:42046:1,2002-01-25T03:00:00Z,27.8903,-94.0367,2.0,154.8427523,24.93521406,-99999.0,'11111222,11111222,99999999' 
TABS,ioos:station:wmo:42046:1,2002-01-25T03:30:00Z,27.8903,-94.0367,2.0,153.9646121,27.56742462,-99999.0,'11111222,11111222,99999999' 
TABS,ioos:station:wmo:42046:1,2002-01-25T04:00:00Z,27.8903,-94.0367,2.0,153.3215071,24.87854095,-99999.0,'11111222,11111222,99999999' 
TABS,ioos:station:wmo:42046:1,2002-01-25T04:30:00Z,27.8903,-94.0367,2.0,145.4517913,26.85604774,-99999.0,'11111222,11111222,99999999' 
TABS,ioos:station:wmo:42046:1,2002-01-25T05:00:00Z,27.8903,-94.0367,2.0,146.5957735,30.00688088,-99999.0,'11111222,11111222,99999999' 
TABS,ioos:station:wmo:42046:1,2002-01-25T05:30:00Z,27.8903,-94.0367,2.0,156.7891388,24.84055152,-99999.0,'11111222,11111222,99999999' 
TABS,ioos:station:wmo:42046:1,2002-01-25T06:00:00Z,27.8903,-94.0367,2.0,148.7114652,24.81967365,-99999.0,'11111222,11111222,99999999' 
TABS,ioos:station:wmo:42046:1,2002-01-25T06:30:00Z,27.8903,-94.0367,2.0,157.209252,27.10627418,-99999.0,'11111222,11111222,99999999' 
TABS,ioos:station:wmo:42046:1,2002-01-25T07:00:00Z,27.8903,-94.0367,2.0,154.915808,24.74364969,-99999.0,'11111222,11111222,99999999' 
TABS,ioos:station:wmo:42046:1,2002-01-25T07:30:00Z,27.8903,-94.0367,2.0,157.2267316,23.87085461,-99999.0,'11111222,11111222,99999999' 
TABS,ioos:station:wmo:42046:1,2002-01-25T08:00:00Z,27.8903,-94.0367,2.0,148.5121269,22.87886798,-99999.0,'11111222,11111222,99999999' 
TABS,ioos:station:wmo:42046:1,2002-01-25T08:30:00Z,27.8903,-94.0367,2.0,158.380415,21.63175906,-99999.0,'11111222,11111222,99999999' 
TABS,ioos:station:wmo:42046:1,2002-01-25T09:00:00Z,27.8903,-94.0367,2.0,161.1301182,19.17027908,-99999.0,'11111222,11111222,99999999' 
TABS,ioos:station:wmo:42046:1,2002-01-25T09:30:00Z,27.8903,-94.0367,2.0,169.1819813,14.3856491,-99999.0,'11111222,11111222,99999999' 
TABS,ioos:station:wmo:42046:1,2002-01-25T10:00:00Z,27.8903,-94.0367,2.0,164.651081,15.56516945,-99999.0,'11111222,11111222,99999999' 
TABS,ioos:station:wmo:42046:1,2002-01-25T10:30:00Z,27.8903,-94.0367,2.0,158.1363287,17.13226196,-99999.0,'11111222,11111222,99999999' 
TABS,ioos:station:wmo:42046:1,2002-01-25T11:00:00Z,27.8903,-94.0367,2.0,170.2399555,9.497457555,-99999.0,'11133222,11111222,99999999' 
TABS,ioos:station:wmo:42046:1,2002-01-25T11:30:00Z,27.8903,-94.0367,2.0,157.8475103,11.21806579,-99999.0,'11111222,11111222,99999999' 
TABS,ioos:station:wmo:42046:1,2002-01-25T12:30:00Z,27.8903,-94.0367,2.0,163.6199365,6.702014622,-99999.0,'11133222,11111222,99999999' 
TABS,ioos:station:wmo:42046:1,2002-01-25T13:00:00Z,27.8903,-94.0367,2.0,114.0662727,7.283090004,-99999.0,'11133222,11111222,99999999' 
TABS,ioos:station:wmo:42046:1,2002-01-25T13:30:00Z,27.8903,-94.0367,2.0,46.94411971,2.709778589,-99999.0,'11133222,11111222,99999999' 
TABS,ioos:station:wmo:42046:1,2002-01-25T14:00:00Z,27.8903,-94.0367,2.0,65.25553102,9.150136611,-99999.0,'11133222,11111222,99999999' 
TABS,ioos:station:wmo:42046:1,2002-01-25T14:30:00Z,27.8903,-94.0367,2.0,51.32568267,12.25807897,-99999.0,'11111222,11111222,99999999' 
TABS,ioos:station:wmo:42046:1,2002-01-25T15:00:00Z,27.8903,-94.0367,2.0,72.6900079,13.20821714,-99999.0,'11111222,11111222,99999999' 
TABS,ioos:station:wmo:42046:1,2002-01-25T15:30:00Z,27.8903,-94.0367,2.0,68.59622781,12.57744807,-99999.0,'11111222,11111222,99999999' 
TABS,ioos:station:wmo:42046:1,2002-01-25T16:00:00Z,27.8903,-94.0367,2.0,65.8633493,18.36566634,-99999.0,'11111222,11111222,99999999' 
TABS,ioos:station:wmo:42046:1,2002-01-25T16:30:00Z,27.8903,-94.0367,2.0,40.13560217,16.00999688,-99999.0,'11111222,11111222,99999999' 
TABS,ioos:station:wmo:42046:1,2002-01-25T17:00:00Z,27.8903,-94.0367,2.0,58.66872696,16.03887777,-99999.0,'11111222,11111222,99999999' 
TABS,ioos:station:wmo:42046:1,2002-01-25T17:30:00Z,27.8903,-94.0367,2.0,67.26651015,22.48696734,-99999.0,'11111222,11111222,99999999' 
TABS,ioos:station:wmo:42046:1,2002-01-25T18:00:00Z,27.8903,-94.0367,2.0,84.43343672,19.79334232,-99999.0,'11111222,11111222,99999999' 
TABS,ioos:station:wmo:42046:1,2002-01-25T18:30:00Z,27.8903,-94.0367,2.0,82.17306539,20.04675784,-99999.0,'11111222,11111222,99999999' 
TABS,ioos:station:wmo:42046:1,2002-01-25T19:00:00Z,27.8903,-94.0367,2.0,80.4753543,22.66241382,-99999.0,'11111222,11111222,99999999' 
TABS,ioos:station:wmo:42046:1,2002-01-25T19:30:00Z,27.8903,-94.0367,2.0,82.23823567,22.87961975,-99999.0,'11111222,11111222,99999999' 
TABS,ioos:station:wmo:42046:1,2002-01-25T20:00:00Z,27.8903,-94.0367,2.0,92.28255717,25.61032019,-99999.0,'11111222,11111222,99999999' 
TABS,ioos:station:wmo:42046:1,2002-01-25T20:30:00Z,27.8903,-94.0367,2.0,90.21394839,26.78018671,-99999.0,'11111222,11111222,99999999' 
TABS,ioos:station:wmo:42046:1,2002-01-25T21:00:00Z,27.8903,-94.0367,2.0,105.1114005,23.78238003,-99999.0,'11111222,11111222,99999999' 
TABS,ioos:station:wmo:42046:1,2002-01-25T21:30:00Z,27.8903,-94.0367,2.0,99.20673576,25.06287493,-99999.0,'11111222,11111222,99999999' 
TABS,ioos:station:wmo:42046:1,2002-01-25T22:00:00Z,27.8903,-94.0367,2.0,106.1098541,27.74969549,-99999.0,'11111222,11111222,99999999' 
TABS,ioos:station:wmo:42046:1,2002-01-25T22:30:00Z,27.8903,-94.0367,2.0,105.4961523,28.55813894,-99999.0,'11111222,11111222,99999999' 
TABS,ioos:station:wmo:42046:1,2002-01-25T23:00:00Z,27.8903,-94.0367,2.0,111.8492302,31.11512173,-99999.0,'11111222,11111222,99999999' 
TABS,ioos:station:wmo:42046:1,2002-01-25T23:30:00Z,27.8903,-94.0367,2.0,106.326466,31.80242129,-99999.0,'11111222,11111222,99999999' 
TABS,ioos:station:wmo:42046:1,2002-01-26T00:00:00Z,27.8903,-94.0367,2.0,111.8948696,31.85793465,-99999.0,'11111222,11111222,99999999' 
TABS,ioos:station:wmo:42046:1,2002-01-26T00:30:00Z,27.8903,-94.0367,2.0,106.9947337,30.82613339,-99999.0,'11111222,11111222,99999999' 
TABS,ioos:station:wmo:42046:1,2002-01-26T01:00:00Z,27.8903,-94.0367,2.0,105.0459979,33.1670469,-99999.0,'11111222,11111222,99999999' 
TABS,ioos:station:wmo:42046:1,2002-01-26T01:30:00Z,27.8903,-94.0367,2.0,108.100604,33.6029344,-99999.0,'11111222,11111222,99999999' 
TABS,ioos:station:wmo:42046:1,2002-01-26T02:00:00Z,27.8903,-94.0367,2.0,97.62232561,31.43778777,-99999.0,'11111222,11111222,99999999' 
TABS,ioos:station:wmo:42046:1,2002-01-26T02:30:00Z,27.8903,-94.0367,2.0,99.62715283,30.85452965,-99999.0,'11111222,11111222,99999999' 
TABS,ioos:station:wmo:42046:1,2002-01-26T03:00:00Z,27.8903,-94.0367,2.0,95.72403815,33.88897756,-99999.0,'11111222,11111222,99999999' 
TABS,ioos:station:wmo:42046:1,2002-01-26T03:30:00Z,27.8903,-94.0367,2.0,99.06591019,31.60481767,-99999.0,'11111222,11111222,99999999' 
TABS,ioos:station:wmo:42046:1,2002-01-26T04:00:00Z,27.8903,-94.0367,2.0,102.6777437,32.12317077,-99999.0,'11111222,11111222,99999999' 
TABS,ioos:station:wmo:42046:1,2002-01-26T04:30:00Z,27.8903,-94.0367,2.0,98.98862079,31.61829376,-99999.0,'11111222,11111222,99999999' 
TABS,ioos:station:wmo:42046:1,2002-01-26T05:00:00Z,27.8903,-94.0367,2.0,86.18140156,33.63467259,-99999.0,'11111222,11111222,99999999' 
TABS,ioos:station:wmo:42046:1,2002-01-26T05:30:00Z,27.8903,-94.0367,2.0,79.12021111,45.45707866,-99999.0,'11111222,11111222,99999999' 
TABS,ioos:station:wmo:42046:1,2002-01-26T06:00:00Z,27.8903,-94.0367,2.0,80.91070279,47.22296581,-99999.0,'11111222,11111222,99999999' 
TABS,ioos:station:wmo:42046:1,2002-01-26T06:30:00Z,27.8903,-94.0367,2.0,84.00649686,44.53343239,-99999.0,'11111222,11111222,99999999' 
TABS,ioos:station:wmo:42046:1,2002-01-26T07:00:00Z,27.8903,-94.0367,2.0,89.49121514,46.17182041,-99999.0,'11111222,11111222,99999999' 
TABS,ioos:station:wmo:42046:1,2002-01-26T07:30:00Z,27.8903,-94.0367,2.0,91.27999068,43.87094711,-99999.0,'11111222,11111222,99999999' 
TABS,ioos:station:wmo:42046:1,2002-01-26T08:00:00Z,27.8903,-94.0367,2.0,95.6366872,49.37876163,-99999.0,'11111222,11111222,99999999' 
TABS,ioos:station:wmo:42046:1,2002-01-26T08:30:00Z,27.8903,-94.0367,2.0,95.41786526,45.96534782,-99999.0,'11111222,11111222,99999999' 
TABS,ioos:station:wmo:42046:1,2002-01-26T09:00:00Z,27.8903,-94.0367,2.0,94.32891733,43.4539676,-99999.0,'11111222,11111222,99999999' 
TABS,ioos:station:wmo:42046:1,2002-01-26T09:30:00Z,27.8903,-94.0367,2.0,95.36920608,43.92271622,-99999.0,'11111222,11111222,99999999' 
TABS,ioos:station:wmo:42046:1,2002-01-26T10:00:00Z,27.8903,-94.0367,2.0,95.84348461,42.03844431,-99999.0,'11111222,11111222,99999999' 
TABS,ioos:station:wmo:42046:1,2002-01-26T10:30:00Z,27.8903,-94.0367,2.0,94.57265449,36.37578315,-99999.0,'11111222,11111222,99999999' 
TABS,ioos:station:wmo:42046:1,2002-01-26T11:00:00Z,27.8903,-94.0367,2.0,95.58471009,34.42339466,-99999.0,'11111222,11111222,99999999' 
TABS,ioos:station:wmo:42046:1,2002-01-26T11:30:00Z,27.8903,-94.0367,2.0,92.81315825,31.37781382,-99999.0,'11111222,11111222,99999999' 
TABS,ioos:station:wmo:42046:1,2002-01-26T12:00:00Z,27.8903,-94.0367,2.0,102.7048013,24.00780706,-99999.0,'11111222,11111222,99999999' 
TABS,ioos:station:wmo:42046:1,2002-01-26T12:30:00Z,27.8903,-94.0367,2.0,91.91518236,22.14236889,-99999.0,'11111222,11111222,99999999' 
TABS,ioos:station:wmo:42046:1,2002-01-26T13:00:00Z,27.8903,-94.0367,2.0,91.80535312,23.17150189,-99999.0,'11111222,11111222,99999999' 
TABS,ioos:station:wmo:42046:1,2002-01-26T13:30:00Z,27.8903,-94.0367,2.0,79.80506772,27.51441986,-99999.0,'11111222,11111222,99999999' 
TABS,ioos:station:wmo:42046:1,2002-01-26T14:00:00Z,27.8903,-94.0367,2.0,77.64413933,30.18926465,-99999.0,'11111222,11111222,99999999' 
TABS,ioos:station:wmo:42046:1,2002-01-26T14:30:00Z,27.8903,-94.0367,2.0,77.04916185,29.44910865,-99999.0,'11111222,11111222,99999999' 
TABS,ioos:station:wmo:42046:1,2002-01-26T15:30:00Z,27.8903,-94.0367,2.0,76.82812215,36.81867189,-99999.0,'11111222,11111222,99999999' 
TABS,ioos:station:wmo:42046:1,2002-01-26T16:00:00Z,27.8903,-94.0367,2.0,75.09641959,37.17041835,-99999.0,'11111222,11111222,99999999' 
TABS,ioos:station:wmo:42046:1,2002-01-26T16:30:00Z,27.8903,-94.0367,2.0,74.61074807,37.07948355,-99999.0,'11111222,11111222,99999999' 
TABS,ioos:station:wmo:42046:1,2002-01-26T17:00:00Z,27.8903,-94.0367,2.0,74.35838161,37.31177428,-99999.0,'11111222,11111222,99999999' 
TABS,ioos:station:wmo:42046:1,2002-01-26T17:30:00Z,27.8903,-94.0367,2.0,77.65946982,35.65379783,-99999.0,'11111222,11111222,99999999' 
TABS,ioos:station:wmo:42046:1,2002-01-26T18:00:00Z,27.8903,-94.0367,2.0,76.85084156,35.56240993,-99999.0,'11111222,11111222,99999999' 
TABS,ioos:station:wmo:42046:1,2002-01-26T18:30:00Z,27.8903,-94.0367,2.0,79.81826896,37.05352075,-99999.0,'11111222,11111222,99999999' 
TABS,ioos:station:wmo:42046:1,2002-01-26T19:00:00Z,27.8903,-94.0367,2.0,81.09054616,38.67666221,-99999.0,'11111222,11111222,99999999' 